Time,TemperatureF,DewpointF,PressureIn,WindDirection,WindDirectionDegrees,WindSpeedMPH,WindSpeedGustMPH,Humidity,HourlyPrecipIn,Conditions,Clouds,dailyrainin,SoftwareType,DateUTC
2013-07-01 00:01:00,71.4,0.0,0.00,North,8,1.7,5.5,0,0.00,,,0.00,WUHU216PEETBRO,2013-07-01 05:01:00,
2013-07-01 00:06:00,71.1,0.0,0.00,North,357,1.7,5.2,0,0.00,,,0.00,WUHU216PEETBRO,2013-07-01 05:06:00,
2013-07-01 00:11:00,71.1,0.0,0.00,NE,36,0.0,5.2,0,0.00,,,0.00,WUHU216PEETBRO,2013-07-01 05:11:00,
2013-07-01 00:16:00,70.5,0.0,0.00,North,352,1.0,3.1,0,0.00,,,0.00,WUHU216PEETBRO,2013-07-01 05:16:00,
2013-07-01 00:21:00,70.5,0.0,0.00,North,351,2.4,3.4,0,0.00,,,0.00,WUHU216PEETBRO,2013-07-01 05:21:00,
2013-07-01 00:26:00,70.5,0.0,0.00,NNW,344,1.6,4.0,0,0.00,,,0.00,WUHU216PEETBRO,2013-07-01 05:26:00,
2013-07-01 00:31:00,70.2,0.0,0.00,NNW,348,1.1,4.0,0,0.00,,,0.00,WUHU216PEETBRO,2013-07-01 05:31:00,
2013-07-01 00:36:00,69.5,0.0,0.00,North,11,1.2,3.0,0,0.00,,,0.00,WUHU216PEETBRO,2013-07-01 05:36:00,
2013-07-01 00:41:00,69.3,0.0,0.00,North,354,1.3,3.0,0,0.00,,,0.00,WUHU216PEETBRO,2013-07-01 05:41:00,
2013-07-01 00:46:00,69.5,0.0,0.00,NNW,344,0.0,2.9,0,0.00,,,0.00,WUHU216PEETBRO,2013-07-01 05:46:00,
2013-07-01 00:51:00,69.5,0.0,0.00,NW,306,0.7,2.1,0,0.00,,,0.00,WUHU216PEETBRO,2013-07-01 05:51:00,
2013-07-01 00:56:00,70.2,0.0,0.00,NNW,338,0.4,3.2,0,0.00,,,0.00,WUHU216PEETBRO,2013-07-01 05:56:00,
2013-07-01 01:01:00,69.1,0.0,0.00,NNW,343,1.1,3.2,0,0.00,,,0.00,WUHU216PEETBRO,2013-07-01 06:01:00,
2013-07-01 01:06:00,69.3,0.0,0.00,NNW,335,0.0,1.8,0,0.00,,,0.00,WUHU216PEETBRO,2013-07-01 06:06:00,
2013-07-01 01:11:00,68.6,0.0,0.00,NNW,335,0.0,1.5,0,0.00,,,0.00,WUHU216PEETBRO,2013-07-01 06:11:00,
2013-07-01 01:16:00,68.3,0.0,0.00,NNW,335,0.0,0.0,0,0.00,,,0.00,WUHU216PEETBRO,2013-07-01 06:16:00,
2013-07-01 01:21:00,68.4,0.0,0.00,NNW,335,0.0,0.0,0,0.00,,,0.00,WUHU216PEETBRO,2013-07-01 06:21:00,
2013-07-01 01:26:00,68.4,0.0,0.00,NNW,335,0.0,0.0,0,0.00,,,0.00,WUHU216PEETBRO,2013-07-01 06:26:00,
2013-07-01 01:31:00,67.3,0.0,0.00,NNW,335,0.0,0.0,0,0.00,,,0.00,WUHU216PEETBRO,2013-07-01 06:31:00,
2013-07-01 01:36:00,67.3,0.0,0.00,NNW,335,0.0,0.0,0,0.00,,,0.00,WUHU216PEETBRO,2013-07-01 06:36:00,
2013-07-01 01:41:00,67.9,0.0,0.00,NNW,335,0.0,0.0,0,0.00,,,0.00,WUHU216PEETBRO,2013-07-01 06:41:00,
2013-07-01 01:46:00,67.3,0.0,0.00,NNW,335,0.0,0.0,0,0.00,,,0.00,WUHU216PEETBRO,2013-07-01 06:46:00,
2013-07-01 01:51:00,67.7,0.0,0.00,NNW,335,0.0,0.0,0,0.00,,,0.00,WUHU216PEETBRO,2013-07-01 06:51:00,
2013-07-01 01:56:00,67.3,0.0,0.00,NNW,335,0.0,0.0,0,0.00,,,0.00,WUHU216PEETBRO,2013-07-01 06:56:00,
2013-07-01 02:01:00,67.3,0.0,0.00,NNW,341,0.4,1.4,0,0.00,,,0.00,WUHU216PEETBRO,2013-07-01 07:01:00,
2013-07-01 02:06:00,66.8,0.0,0.00,NNW,341,0.0,1.4,0,0.00,,,0.00,WUHU216PEETBRO,2013-07-01 07:06:00,
2013-07-01 02:11:00,67.3,0.0,0.00,NNW,341,0.0,0.4,0,0.00,,,0.00,WUHU216PEETBRO,2013-07-01 07:11:00,
2013-07-01 02:16:00,67.0,0.0,0.00,NNW,341,0.0,0.0,0,0.00,,,0.00,WUHU216PEETBRO,2013-07-01 07:16:00,
2013-07-01 02:21:00,66.8,0.0,0.00,NNW,341,0.0,0.0,0,0.00,,,0.00,WUHU216PEETBRO,2013-07-01 07:21:00,
2013-07-01 02:26:00,66.4,0.0,0.00,NNW,341,0.0,0.0,0,0.00,,,0.00,WUHU216PEETBRO,2013-07-01 07:26:00,
2013-07-01 02:30:00,66.3,0.0,0.00,NNW,341,0.0,0.0,0,0.00,,,0.00,WUHU216PEETBRO,2013-07-01 07:30:00,
2013-07-01 02:35:00,66.1,0.0,0.00,NNW,341,0.0,0.0,0,0.00,,,0.00,WUHU216PEETBRO,2013-07-01 07:35:00,
2013-07-01 02:41:00,66.1,0.0,0.00,NNW,341,0.0,0.0,0,0.00,,,0.00,WUHU216PEETBRO,2013-07-01 07:41:00,
2013-07-01 02:45:00,66.8,0.0,0.00,NNW,341,0.0,0.0,0,0.00,,,0.00,WUHU216PEETBRO,2013-07-01 07:45:00,
2013-07-01 02:50:00,67.0,0.0,0.00,NNW,341,0.0,0.0,0,0.00,,,0.00,WUHU216PEETBRO,2013-07-01 07:50:00,
2013-07-01 02:56:00,66.4,0.0,0.00,NNW,341,0.0,0.0,0,0.00,,,0.00,WUHU216PEETBRO,2013-07-01 07:56:00,
2013-07-01 03:00:00,66.1,0.0,0.00,NNW,341,0.0,0.0,0,0.00,,,0.00,WUHU216PEETBRO,2013-07-01 08:00:00,
2013-07-01 03:05:00,65.6,0.0,0.00,NNW,341,0.0,0.0,0,0.00,,,0.00,WUHU216PEETBRO,2013-07-01 08:05:00,
2013-07-01 03:10:00,65.0,0.0,0.00,NNW,341,0.0,0.0,0,0.00,,,0.00,WUHU216PEETBRO,2013-07-01 08:10:00,
2013-07-01 03:15:00,65.3,0.0,0.00,NNW,341,0.0,0.0,0,0.00,,,0.00,WUHU216PEETBRO,2013-07-01 08:15:00,
2013-07-01 03:20:00,65.6,0.0,0.00,NNW,341,0.0,0.0,0,0.00,,,0.00,WUHU216PEETBRO,2013-07-01 08:20:00,
2013-07-01 03:25:00,65.6,0.0,0.00,NNW,341,0.0,0.0,0,0.00,,,0.00,WUHU216PEETBRO,2013-07-01 08:25:00,
2013-07-01 03:30:00,65.3,0.0,0.00,NNW,341,0.0,0.0,0,0.00,,,0.00,WUHU216PEETBRO,2013-07-01 08:30:00,
2013-07-01 03:35:00,66.1,0.0,0.00,NNW,341,0.0,0.0,0,0.00,,,0.00,WUHU216PEETBRO,2013-07-01 08:35:00,
2013-07-01 03:40:00,65.3,0.0,0.00,NNW,341,0.0,0.0,0,0.00,,,0.00,WUHU216PEETBRO,2013-07-01 08:40:00,
2013-07-01 03:46:00,65.0,0.0,0.00,NNW,341,0.0,0.0,0,0.00,,,0.00,WUHU216PEETBRO,2013-07-01 08:46:00,
2013-07-01 03:50:00,64.4,0.0,0.00,NNW,341,0.0,0.0,0,0.00,,,0.00,WUHU216PEETBRO,2013-07-01 08:50:00,
2013-07-01 03:55:00,64.4,0.0,0.00,NNW,341,0.0,0.0,0,0.00,,,0.00,WUHU216PEETBRO,2013-07-01 08:55:00,
2013-07-01 04:00:00,64.7,0.0,0.00,NNW,341,0.0,0.0,0,0.00,,,0.00,WUHU216PEETBRO,2013-07-01 09:00:00,
2013-07-01 04:05:00,65.3,0.0,0.00,NNW,341,0.0,0.0,0,0.00,,,0.00,WUHU216PEETBRO,2013-07-01 09:05:00,
2013-07-01 04:10:00,64.4,0.0,0.00,NNW,341,0.0,0.0,0,0.00,,,0.00,WUHU216PEETBRO,2013-07-01 09:10:00,
2013-07-01 04:15:00,64.7,0.0,0.00,NNW,341,0.0,0.0,0,0.00,,,0.00,WUHU216PEETBRO,2013-07-01 09:15:00,
2013-07-01 04:20:00,64.4,0.0,0.00,NNW,341,0.0,0.0,0,0.00,,,0.00,WUHU216PEETBRO,2013-07-01 09:20:00,
2013-07-01 04:25:00,64.7,0.0,0.00,NNW,341,0.0,0.0,0,0.00,,,0.00,WUHU216PEETBRO,2013-07-01 09:25:00,
2013-07-01 04:30:00,64.1,0.0,0.00,NNW,341,0.0,0.0,0,0.00,,,0.00,WUHU216PEETBRO,2013-07-01 09:30:00,
2013-07-01 04:35:00,64.7,0.0,0.00,NNW,341,0.0,0.0,0,0.00,,,0.00,WUHU216PEETBRO,2013-07-01 09:35:00,
2013-07-01 04:40:00,64.2,0.0,0.00,WNW,300,0.0,4.5,0,0.00,,,0.00,WUHU216PEETBRO,2013-07-01 09:40:00,
2013-07-01 04:45:00,64.0,0.0,0.00,WNW,300,0.0,4.5,0,0.00,,,0.00,WUHU216PEETBRO,2013-07-01 09:45:00,
2013-07-01 04:50:00,64.2,0.0,0.00,NNW,335,1.6,1.6,0,0.00,,,0.00,WUHU216PEETBRO,2013-07-01 09:50:00,
2013-07-01 04:55:00,64.2,0.0,0.00,NNW,343,0.0,1.8,0,0.00,,,0.00,WUHU216PEETBRO,2013-07-01 09:55:00,
2013-07-01 05:00:00,64.0,0.0,0.00,NNW,343,0.0,1.8,0,0.00,,,0.00,WUHU216PEETBRO,2013-07-01 10:00:00,
2013-07-01 05:05:00,63.3,0.0,0.00,NNW,343,0.0,0.0,0,0.00,,,0.00,WUHU216PEETBRO,2013-07-01 10:05:00,
2013-07-01 05:10:00,63.3,0.0,0.00,NNW,343,0.0,0.0,0,0.00,,,0.00,WUHU216PEETBRO,2013-07-01 10:10:00,
2013-07-01 05:15:00,63.3,0.0,0.00,NNW,343,0.0,0.0,0,0.00,,,0.00,WUHU216PEETBRO,2013-07-01 10:15:00,
2013-07-01 05:20:00,63.0,0.0,0.00,NNW,343,0.0,0.0,0,0.00,,,0.00,WUHU216PEETBRO,2013-07-01 10:20:00,
2013-07-01 05:25:00,64.4,0.0,0.00,North,4,1.7,2.2,0,0.00,,,0.00,WUHU216PEETBRO,2013-07-01 10:25:00,
2013-07-01 05:30:00,63.9,0.0,0.00,NNW,343,0.0,2.6,0,0.00,,,0.00,WUHU216PEETBRO,2013-07-01 10:30:00,
2013-07-01 05:35:00,63.9,0.0,0.00,NNW,345,0.0,2.6,0,0.00,,,0.00,WUHU216PEETBRO,2013-07-01 10:35:00,
2013-07-01 05:40:00,64.2,0.0,0.00,NNW,345,0.0,2.2,0,0.00,,,0.00,WUHU216PEETBRO,2013-07-01 10:40:00,
2013-07-01 05:45:00,63.9,0.0,0.00,NNW,345,0.0,0.0,0,0.00,,,0.00,WUHU216PEETBRO,2013-07-01 10:45:00,
2013-07-01 05:50:00,64.0,0.0,0.00,NNW,345,0.0,0.0,0,0.00,,,0.00,WUHU216PEETBRO,2013-07-01 10:50:00,
2013-07-01 05:55:00,64.2,0.0,0.00,NNW,345,0.0,0.0,0,0.00,,,0.00,WUHU216PEETBRO,2013-07-01 10:55:00,
2013-07-01 06:00:00,63.6,0.0,0.00,NNW,345,0.0,0.0,0,0.00,,,0.00,WUHU216PEETBRO,2013-07-01 11:00:00,
2013-07-01 06:05:00,63.0,0.0,0.00,NNW,345,0.0,0.2,0,0.00,,,0.00,WUHU216PEETBRO,2013-07-01 11:05:00,
2013-07-01 06:10:00,64.4,0.0,0.00,NNW,345,0.0,0.2,0,0.00,,,0.00,WUHU216PEETBRO,2013-07-01 11:10:00,
2013-07-01 06:15:00,63.3,0.0,0.00,SW,228,1.1,2.0,0,0.00,,,0.00,WUHU216PEETBRO,2013-07-01 11:15:00,
2013-07-01 06:20:00,63.6,0.0,0.00,WSW,242,0.0,2.0,0,0.00,,,0.00,WUHU216PEETBRO,2013-07-01 11:20:00,
2013-07-01 06:25:00,64.2,0.0,0.00,WSW,242,0.0,1.6,0,0.00,,,0.00,WUHU216PEETBRO,2013-07-01 11:25:00,
2013-07-01 06:30:00,63.9,0.0,0.00,WSW,242,0.0,0.0,0,0.00,,,0.00,WUHU216PEETBRO,2013-07-01 11:30:00,
2013-07-01 06:35:00,63.8,0.0,0.00,WSW,242,0.0,0.0,0,0.00,,,0.00,WUHU216PEETBRO,2013-07-01 11:35:00,
2013-07-01 06:40:00,65.9,0.0,0.00,WSW,242,0.0,0.0,0,0.00,,,0.00,WUHU216PEETBRO,2013-07-01 11:40:00,
2013-07-01 06:45:00,69.0,0.0,0.00,WSW,242,0.0,0.0,0,0.00,,,0.00,WUHU216PEETBRO,2013-07-01 11:45:00,
2013-07-01 06:50:00,70.5,0.0,0.00,WSW,242,0.0,0.0,0,0.00,,,0.00,WUHU216PEETBRO,2013-07-01 11:50:00,
2013-07-01 06:55:00,73.0,0.0,0.00,WSW,242,0.0,0.0,0,0.00,,,0.00,WUHU216PEETBRO,2013-07-01 11:55:00,
2013-07-01 07:00:00,73.0,0.0,0.00,WSW,242,0.0,0.0,0,0.00,,,0.00,WUHU216PEETBRO,2013-07-01 12:00:00,
2013-07-01 07:05:00,74.9,0.0,0.00,WSW,242,0.0,0.0,0,0.00,,,0.00,WUHU216PEETBRO,2013-07-01 12:05:00,
2013-07-01 07:10:00,73.9,0.0,0.00,WSW,242,0.0,0.0,0,0.00,,,0.00,WUHU216PEETBRO,2013-07-01 12:10:00,
2013-07-01 07:15:00,72.3,0.0,0.00,WSW,242,0.0,0.0,0,0.00,,,0.00,WUHU216PEETBRO,2013-07-01 12:15:00,
2013-07-01 07:20:00,74.9,0.0,0.00,WSW,242,0.0,0.0,0,0.00,,,0.00,WUHU216PEETBRO,2013-07-01 12:20:00,
2013-07-01 07:25:00,79.9,0.0,0.00,WSW,242,0.0,0.0,0,0.00,,,0.00,WUHU216PEETBRO,2013-07-01 12:25:00,
2013-07-01 07:30:00,79.5,0.0,0.00,North,1,2.4,2.4,0,0.00,,,0.00,WUHU216PEETBRO,2013-07-01 12:30:00,
2013-07-01 07:35:00,79.5,0.0,0.00,NNW,345,2.3,3.8,0,0.00,,,0.00,WUHU216PEETBRO,2013-07-01 12:35:00,
2013-07-01 07:40:00,80.2,0.0,0.00,NW,310,1.1,3.8,0,0.00,,,0.00,WUHU216PEETBRO,2013-07-01 12:40:00,
2013-07-01 07:45:00,81.1,0.0,0.00,North,5,1.1,3.5,0,0.00,,,0.00,WUHU216PEETBRO,2013-07-01 12:45:00,
2013-07-01 07:50:00,81.1,0.0,0.00,NNW,334,3.0,4.3,0,0.00,,,0.00,WUHU216PEETBRO,2013-07-01 12:50:00,
2013-07-01 07:55:00,81.5,0.0,0.00,NNW,338,4.7,5.5,0,0.00,,,0.00,WUHU216PEETBRO,2013-07-01 12:55:00,
2013-07-01 08:00:00,81.7,0.0,0.00,North,0,2.8,5.5,0,0.00,,,0.00,WUHU216PEETBRO,2013-07-01 13:00:00,
2013-07-01 08:05:00,81.5,0.0,0.00,North,1,3.2,5.6,0,0.00,,,0.00,WUHU216PEETBRO,2013-07-01 13:05:00,
2013-07-01 08:10:00,83.2,0.0,0.00,NNE,15,3.1,7.5,0,0.00,,,0.00,WUHU216PEETBRO,2013-07-01 13:10:00,
2013-07-01 08:15:00,82.1,0.0,0.00,ENE,60,0.6,7.5,0,0.00,,,0.00,WUHU216PEETBRO,2013-07-01 13:15:00,
2013-07-01 08:20:00,81.5,0.0,0.00,North,7,3.8,7.1,0,0.00,,,0.00,WUHU216PEETBRO,2013-07-01 13:20:00,
2013-07-01 08:25:00,82.7,0.0,0.00,NNE,16,2.7,5.5,0,0.00,,,0.00,WUHU216PEETBRO,2013-07-01 13:25:00,
2013-07-01 08:30:00,84.6,0.0,0.00,North,4,2.9,6.1,0,0.00,,,0.00,WUHU216PEETBRO,2013-07-01 13:30:00,
2013-07-01 08:35:00,82.1,0.0,0.00,North,1,2.7,6.1,0,0.00,,,0.00,WUHU216PEETBRO,2013-07-01 13:35:00,
2013-07-01 08:40:00,84.5,0.0,0.00,NE,42,3.4,8.0,0,0.00,,,0.00,WUHU216PEETBRO,2013-07-01 13:40:00,
2013-07-01 08:45:00,87.7,0.0,0.00,NNE,14,2.2,8.0,0,0.00,,,0.00,WUHU216PEETBRO,2013-07-01 13:45:00,
2013-07-01 08:50:00,86.9,0.0,0.00,NNE,18,6.2,6.2,0,0.00,,,0.00,WUHU216PEETBRO,2013-07-01 13:50:00,
2013-07-01 08:55:00,85.5,0.0,0.00,North,0,3.3,6.6,0,0.00,,,0.00,WUHU216PEETBRO,2013-07-01 13:55:00,
2013-07-01 09:00:00,86.6,0.0,0.00,NE,35,4.7,6.6,0,0.00,,,0.00,WUHU216PEETBRO,2013-07-01 14:00:00,
2013-07-01 09:05:00,86.6,0.0,0.00,NNE,21,2.4,7.5,0,0.00,,,0.00,WUHU216PEETBRO,2013-07-01 14:05:00,
2013-07-01 09:10:00,86.9,0.0,0.00,North,359,6.4,7.5,0,0.00,,,0.00,WUHU216PEETBRO,2013-07-01 14:10:00,
2013-07-01 09:15:00,86.6,0.0,0.00,North,1,3.4,6.7,0,0.00,,,0.00,WUHU216PEETBRO,2013-07-01 14:15:00,
2013-07-01 09:20:00,90.0,0.0,0.00,North,4,4.3,7.4,0,0.00,,,0.00,WUHU216PEETBRO,2013-07-01 14:20:00,
2013-07-01 09:25:00,88.5,0.0,0.00,North,359,3.4,7.4,0,0.00,,,0.00,WUHU216PEETBRO,2013-07-01 14:25:00,
2013-07-01 09:30:00,90.9,0.0,0.00,North,7,3.4,7.1,0,0.00,,,0.00,WUHU216PEETBRO,2013-07-01 14:30:00,
2013-07-01 09:35:00,90.6,0.0,0.00,North,0,0.7,7.1,0,0.00,,,0.00,WUHU216PEETBRO,2013-07-01 14:35:00,
2013-07-01 09:40:00,88.1,0.0,0.00,NNE,12,2.0,5.8,0,0.00,,,0.00,WUHU216PEETBRO,2013-07-01 14:40:00,
2013-07-01 09:45:00,94.7,0.0,0.00,North,1,3.9,5.3,0,0.00,,,0.00,WUHU216PEETBRO,2013-07-01 14:45:00,
2013-07-01 09:50:00,93.9,0.0,0.00,East,80,2.7,5.0,0,0.00,,,0.00,WUHU216PEETBRO,2013-07-01 14:50:00,
2013-07-01 09:55:00,92.1,0.0,0.00,North,5,0.0,4.8,0,0.00,,,0.00,WUHU216PEETBRO,2013-07-01 14:55:00,
2013-07-01 10:00:00,92.1,0.0,0.00,NNE,16,2.9,4.7,0,0.00,,,0.00,WUHU216PEETBRO,2013-07-01 15:00:00,
2013-07-01 10:05:00,89.2,0.0,0.00,ESE,118,1.2,4.7,0,0.00,,,0.00,WUHU216PEETBRO,2013-07-01 15:05:00,
2013-07-01 10:10:00,96.4,0.0,0.00,NNW,333,3.0,4.5,0,0.00,,,0.00,WUHU216PEETBRO,2013-07-01 15:10:00,
2013-07-01 10:15:00,90.1,0.0,0.00,ENE,60,3.5,4.9,0,0.00,,,0.00,WUHU216PEETBRO,2013-07-01 15:15:00,
2013-07-01 10:20:00,90.0,0.0,0.00,East,97,3.5,6.0,0,0.00,,,0.00,WUHU216PEETBRO,2013-07-01 15:20:00,
2013-07-01 10:25:00,96.0,0.0,0.00,NNW,337,2.5,6.0,0,0.00,,,0.00,WUHU216PEETBRO,2013-07-01 15:25:00,
2013-07-01 10:30:00,98.9,0.0,0.00,WNW,297,0.0,6.1,0,0.00,,,0.00,WUHU216PEETBRO,2013-07-01 15:30:00,
2013-07-01 10:35:00,92.1,0.0,0.00,SE,124,0.0,6.1,0,0.00,,,0.00,WUHU216PEETBRO,2013-07-01 15:35:00,
2013-07-01 10:40:00,93.9,0.0,0.00,North,7,4.6,6.5,0,0.00,,,0.00,WUHU216PEETBRO,2013-07-01 15:40:00,
2013-07-01 10:45:00,98.3,0.0,0.00,West,273,3.4,7.5,0,0.00,,,0.00,WUHU216PEETBRO,2013-07-01 15:45:00,
2013-07-01 10:50:00,98.3,0.0,0.00,NE,43,0.9,7.5,0,0.00,,,0.00,WUHU216PEETBRO,2013-07-01 15:50:00,
2013-07-01 10:55:00,97.0,0.0,0.00,WNW,300,1.4,6.8,0,0.00,,,0.00,WUHU216PEETBRO,2013-07-01 15:55:00,
2013-07-01 11:00:00,95.5,0.0,0.00,NNW,340,5.5,7.5,0,0.00,,,0.00,WUHU216PEETBRO,2013-07-01 16:00:00,
2013-07-01 11:05:00,95.1,0.0,0.00,North,0,0.0,7.5,0,0.00,,,0.00,WUHU216PEETBRO,2013-07-01 16:05:00,
2013-07-01 11:10:00,92.6,0.0,0.00,ESE,115,0.0,6.8,0,0.00,,,0.00,WUHU216PEETBRO,2013-07-01 16:10:00,
2013-07-01 11:15:00,97.0,0.0,0.00,NW,316,3.3,6.2,0,0.00,,,0.00,WUHU216PEETBRO,2013-07-01 16:15:00,
2013-07-01 11:19:00,97.0,0.0,0.00,North,4,3.8,7.1,0,0.00,,,0.00,WUHU216PEETBRO,2013-07-01 16:19:00,
2013-07-01 11:24:00,97.9,0.0,0.00,NW,323,0.0,7.1,0,0.00,,,0.00,WUHU216PEETBRO,2013-07-01 16:24:00,
2013-07-01 11:29:00,96.0,0.0,0.00,WNW,303,3.7,7.5,0,0.00,,,0.00,WUHU216PEETBRO,2013-07-01 16:29:00,
2013-07-01 11:34:00,91.0,0.0,0.00,ESE,118,1.3,7.5,0,0.00,,,0.00,WUHU216PEETBRO,2013-07-01 16:34:00,
2013-07-01 11:39:00,91.8,0.0,0.00,North,2,3.3,9.1,0,0.00,,,0.00,WUHU216PEETBRO,2013-07-01 16:39:00,
2013-07-01 11:44:00,94.2,0.0,0.00,NW,304,5.5,9.1,0,0.00,,,0.00,WUHU216PEETBRO,2013-07-01 16:44:00,
2013-07-01 11:49:00,98.9,0.0,0.00,SSW,200,1.9,8.6,0,0.00,,,0.00,WUHU216PEETBRO,2013-07-01 16:49:00,
2013-07-01 11:54:00,90.9,0.0,0.00,NNW,343,4.0,11.9,0,0.00,,,0.00,WUHU216PEETBRO,2013-07-01 16:54:00,
2013-07-01 11:59:00,95.5,0.0,0.00,NW,321,0.0,11.9,0,0.00,,,0.00,WUHU216PEETBRO,2013-07-01 16:59:00,
2013-07-01 12:04:00,96.0,0.0,0.00,NW,313,5.3,8.8,0,0.00,,,0.00,WUHU216PEETBRO,2013-07-01 17:04:00,
2013-07-01 12:09:00,93.0,0.0,0.00,NNE,19,3.4,9.4,0,0.00,,,0.00,WUHU216PEETBRO,2013-07-01 17:09:00,
2013-07-01 12:14:00,95.1,0.0,0.00,NNE,16,5.5,9.5,0,0.00,,,0.00,WUHU216PEETBRO,2013-07-01 17:14:00,
2013-07-01 12:19:00,97.5,0.0,0.00,WNW,296,0.0,9.5,0,0.00,,,0.00,WUHU216PEETBRO,2013-07-01 17:19:00,
2013-07-01 12:24:00,98.9,0.0,0.00,NE,35,4.0,8.8,0,0.00,,,0.00,WUHU216PEETBRO,2013-07-01 17:24:00,
2013-07-01 12:29:00,92.1,0.0,0.00,West,259,3.6,11.9,0,0.00,,,0.00,WUHU216PEETBRO,2013-07-01 17:29:00,
2013-07-01 12:34:00,97.9,0.0,0.00,NW,304,0.0,11.9,0,0.00,,,0.00,WUHU216PEETBRO,2013-07-01 17:34:00,
2013-07-01 12:39:00,97.4,0.0,0.00,NW,317,7.8,8.5,0,0.00,,,0.00,WUHU216PEETBRO,2013-07-01 17:39:00,
2013-07-01 12:44:00,95.9,0.0,0.00,WNW,283,1.7,9.8,0,0.00,,,0.00,WUHU216PEETBRO,2013-07-01 17:44:00,
2013-07-01 12:49:00,95.5,0.0,0.00,NNW,337,6.2,10.7,0,0.00,,,0.00,WUHU216PEETBRO,2013-07-01 17:49:00,
2013-07-01 12:54:00,96.0,0.0,0.00,NW,321,9.3,10.7,0,0.00,,,0.00,WUHU216PEETBRO,2013-07-01 17:54:00,
2013-07-01 12:59:00,94.7,0.0,0.00,WNW,297,1.1,10.7,0,0.00,,,0.00,WUHU216PEETBRO,2013-07-01 17:59:00,
2013-07-01 13:04:00,94.7,0.0,0.00,North,359,9.0,11.0,0,0.00,,,0.00,WUHU216PEETBRO,2013-07-01 18:04:00,
2013-07-01 13:09:00,94.7,0.0,0.00,NNE,22,7.0,11.0,0,0.00,,,0.00,WUHU216PEETBRO,2013-07-01 18:09:00,
2013-07-01 13:14:00,94.2,0.0,0.00,NNE,21,9.2,10.4,0,0.00,,,0.00,WUHU216PEETBRO,2013-07-01 18:14:00,
2013-07-01 13:19:00,91.3,0.0,0.00,NNW,333,5.0,11.6,0,0.00,,,0.00,WUHU216PEETBRO,2013-07-01 18:19:00,
2013-07-01 13:24:00,89.9,0.0,0.00,North,1,3.9,11.6,0,0.00,,,0.00,WUHU216PEETBRO,2013-07-01 18:24:00,
2013-07-01 13:29:00,95.1,0.0,0.00,North,1,8.7,10.6,0,0.00,,,0.00,WUHU216PEETBRO,2013-07-01 18:29:00,
2013-07-01 13:34:00,88.5,0.0,0.00,North,4,6.5,11.9,0,0.00,,,0.00,WUHU216PEETBRO,2013-07-01 18:34:00,
2013-07-01 13:39:00,97.0,0.0,0.00,NW,321,0.0,11.9,0,0.00,,,0.00,WUHU216PEETBRO,2013-07-01 18:39:00,
2013-07-01 13:44:00,95.1,0.0,0.00,WNW,299,8.3,11.3,0,0.00,,,0.00,WUHU216PEETBRO,2013-07-01 18:44:00,
2013-07-01 13:49:00,96.0,0.0,0.00,NNW,335,4.1,11.6,0,0.00,,,0.00,WUHU216PEETBRO,2013-07-01 18:49:00,
2013-07-01 13:54:00,93.4,0.0,0.00,North,9,6.0,12.3,0,0.00,,,0.00,WUHU216PEETBRO,2013-07-01 18:54:00,
2013-07-01 13:59:00,96.0,0.0,0.00,NW,314,5.0,14.4,0,0.00,,,0.00,WUHU216PEETBRO,2013-07-01 18:59:00,
2013-07-01 14:04:00,98.3,0.0,0.00,NNW,327,5.6,14.4,0,0.00,,,0.00,WUHU216PEETBRO,2013-07-01 19:04:00,
2013-07-01 14:09:00,93.9,0.0,0.00,North,4,3.4,15.2,0,0.00,,,0.00,WUHU216PEETBRO,2013-07-01 19:09:00,
2013-07-01 14:14:00,96.5,0.0,0.00,North,357,6.2,15.2,0,0.00,,,0.00,WUHU216PEETBRO,2013-07-01 19:14:00,
2013-07-01 14:19:00,96.5,0.0,0.00,NW,311,9.8,11.2,0,0.00,,,0.00,WUHU216PEETBRO,2013-07-01 19:19:00,
2013-07-01 14:24:00,94.7,0.0,0.00,North,357,8.1,12.7,0,0.00,,,0.00,WUHU216PEETBRO,2013-07-01 19:24:00,
2013-07-01 14:29:00,98.3,0.0,0.00,NNW,328,5.0,12.7,0,0.00,,,0.00,WUHU216PEETBRO,2013-07-01 19:29:00,
2013-07-01 14:34:00,93.4,0.0,0.00,NNW,343,11.4,17.0,0,0.00,,,0.00,WUHU216PEETBRO,2013-07-01 19:34:00,
2013-07-01 14:39:00,97.4,0.0,0.00,NNW,331,5.6,17.0,0,0.00,,,0.00,WUHU216PEETBRO,2013-07-01 19:39:00,
2013-07-01 14:44:00,92.1,0.0,0.00,NW,326,3.4,12.6,0,0.00,,,0.00,WUHU216PEETBRO,2013-07-01 19:44:00,
2013-07-01 14:49:00,94.7,0.0,0.00,North,5,5.8,9.9,0,0.00,,,0.00,WUHU216PEETBRO,2013-07-01 19:49:00,
2013-07-01 14:54:00,95.9,0.0,0.00,North,1,7.0,9.4,0,0.00,,,0.00,WUHU216PEETBRO,2013-07-01 19:54:00,
2013-07-01 14:59:00,90.3,0.0,0.00,North,351,5.8,12.7,0,0.00,,,0.00,WUHU216PEETBRO,2013-07-01 19:59:00,
2013-07-01 15:04:00,93.4,0.0,0.00,ENE,70,5.5,12.7,0,0.00,,,0.00,WUHU216PEETBRO,2013-07-01 20:04:00,
2013-07-01 15:09:00,97.4,0.0,0.00,NNE,18,5.3,11.1,0,0.00,,,0.00,WUHU216PEETBRO,2013-07-01 20:09:00,
2013-07-01 15:14:00,96.8,0.0,0.00,NNE,23,8.3,13.2,0,0.00,,,0.00,WUHU216PEETBRO,2013-07-01 20:14:00,
2013-07-01 15:19:00,96.1,0.0,0.00,NW,321,8.6,13.5,0,0.00,,,0.00,WUHU216PEETBRO,2013-07-01 20:19:00,
2013-07-01 15:24:00,96.8,0.0,0.00,North,358,7.9,13.5,0,0.00,,,0.00,WUHU216PEETBRO,2013-07-01 20:24:00,
2013-07-01 15:29:00,96.4,0.0,0.00,North,357,8.3,14.0,0,0.00,,,0.00,WUHU216PEETBRO,2013-07-01 20:29:00,
2013-07-01 15:34:00,98.9,0.0,0.00,North,7,5.8,15.3,0,0.00,,,0.00,WUHU216PEETBRO,2013-07-01 20:34:00,
2013-07-01 15:39:00,97.0,0.0,0.00,NNW,331,2.2,15.3,0,0.00,,,0.00,WUHU216PEETBRO,2013-07-01 20:39:00,
2013-07-01 15:44:00,98.3,0.0,0.00,NNW,330,7.6,12.1,0,0.00,,,0.00,WUHU216PEETBRO,2013-07-01 20:44:00,
2013-07-01 15:49:00,92.1,0.0,0.00,North,0,10.3,12.1,0,0.00,,,0.00,WUHU216PEETBRO,2013-07-01 20:49:00,
2013-07-01 15:54:00,98.3,0.0,0.00,North,354,8.1,11.8,0,0.00,,,0.00,WUHU216PEETBRO,2013-07-01 20:54:00,
2013-07-01 15:59:00,95.8,0.0,0.00,NNW,344,3.9,11.8,0,0.00,,,0.00,WUHU216PEETBRO,2013-07-01 20:59:00,
2013-07-01 16:04:00,96.5,0.0,0.00,North,0,7.5,13.0,0,0.00,,,0.00,WUHU216PEETBRO,2013-07-01 21:04:00,
2013-07-01 16:09:00,100.2,0.0,0.00,North,5,4.7,13.0,0,0.00,,,0.00,WUHU216PEETBRO,2013-07-01 21:09:00,
2013-07-01 16:14:00,97.0,0.0,0.00,North,359,6.5,13.7,0,0.00,,,0.00,WUHU216PEETBRO,2013-07-01 21:14:00,
2013-07-01 16:19:00,95.5,0.0,0.00,NW,321,6.1,13.7,0,0.00,,,0.00,WUHU216PEETBRO,2013-07-01 21:19:00,
2013-07-01 16:24:00,90.9,0.0,0.00,NNW,348,6.6,11.9,0,0.00,,,0.00,WUHU216PEETBRO,2013-07-01 21:24:00,
2013-07-01 16:29:00,91.3,0.0,0.00,North,359,6.3,11.2,0,0.00,,,0.00,WUHU216PEETBRO,2013-07-01 21:29:00,
2013-07-01 16:34:00,90.9,0.0,0.00,North,5,7.5,11.2,0,0.00,,,0.00,WUHU216PEETBRO,2013-07-01 21:34:00,
2013-07-01 16:39:00,91.3,0.0,0.00,North,352,5.1,13.0,0,0.00,,,0.00,WUHU216PEETBRO,2013-07-01 21:39:00,
2013-07-01 16:44:00,92.1,0.0,0.00,North,357,7.3,13.0,0,0.00,,,0.00,WUHU216PEETBRO,2013-07-01 21:44:00,
2013-07-01 16:49:00,92.1,0.0,0.00,North,4,6.8,11.0,0,0.00,,,0.00,WUHU216PEETBRO,2013-07-01 21:49:00,
2013-07-01 16:54:00,90.3,0.0,0.00,NNW,338,6.6,12.6,0,0.00,,,0.00,WUHU216PEETBRO,2013-07-01 21:54:00,
2013-07-01 16:59:00,91.0,0.0,0.00,North,359,4.6,12.6,0,0.00,,,0.00,WUHU216PEETBRO,2013-07-01 21:59:00,
2013-07-01 17:04:00,92.1,0.0,0.00,North,359,9.1,11.7,0,0.00,,,0.00,WUHU216PEETBRO,2013-07-01 22:04:00,
2013-07-01 17:09:00,91.3,0.0,0.00,WNW,295,3.4,12.9,0,0.00,,,0.00,WUHU216PEETBRO,2013-07-01 22:09:00,
2013-07-01 17:14:00,89.2,0.0,0.00,North,359,5.9,13.0,0,0.00,,,0.00,WUHU216PEETBRO,2013-07-01 22:14:00,
2013-07-01 17:19:00,89.9,0.0,0.00,North,2,6.5,13.0,0,0.00,,,0.00,WUHU216PEETBRO,2013-07-01 22:19:00,
2013-07-01 17:24:00,87.7,0.0,0.00,NNW,335,4.8,12.4,0,0.00,,,0.00,WUHU216PEETBRO,2013-07-01 22:24:00,
2013-07-01 17:29:00,89.6,0.0,0.00,NNE,29,4.7,12.4,0,0.00,,,0.00,WUHU216PEETBRO,2013-07-01 22:29:00,
2013-07-01 17:34:00,88.8,0.0,0.00,North,357,6.0,9.3,0,0.00,,,0.00,WUHU216PEETBRO,2013-07-01 22:34:00,
2013-07-01 17:39:00,88.8,0.0,0.00,NNW,347,7.8,12.6,0,0.00,,,0.00,WUHU216PEETBRO,2013-07-01 22:39:00,
2013-07-01 17:44:00,88.8,0.0,0.00,NNE,16,7.0,12.6,0,0.00,,,0.00,WUHU216PEETBRO,2013-07-01 22:44:00,
2013-07-01 17:49:00,88.8,0.0,0.00,NE,47,5.8,11.3,0,0.00,,,0.00,WUHU216PEETBRO,2013-07-01 22:49:00,
2013-07-01 17:54:00,88.8,0.0,0.00,East,79,8.9,12.1,0,0.00,,,0.00,WUHU216PEETBRO,2013-07-01 22:54:00,
2013-07-01 17:59:00,87.3,0.0,0.00,North,355,6.6,12.9,0,0.00,,,0.00,WUHU216PEETBRO,2013-07-01 22:59:00,
2013-07-01 18:04:00,88.1,0.0,0.00,North,1,5.0,12.9,0,0.00,,,0.00,WUHU216PEETBRO,2013-07-01 23:04:00,
2013-07-01 18:09:00,87.3,0.0,0.00,North,9,8.9,10.3,0,0.00,,,0.00,WUHU216PEETBRO,2013-07-01 23:09:00,
2013-07-01 18:14:00,87.7,0.0,0.00,NW,317,5.3,10.1,0,0.00,,,0.00,WUHU216PEETBRO,2013-07-01 23:14:00,
2013-07-01 18:19:00,87.7,0.0,0.00,NNW,345,7.1,10.1,0,0.00,,,0.00,WUHU216PEETBRO,2013-07-01 23:19:00,
2013-07-01 18:24:00,87.7,0.0,0.00,North,4,3.9,9.8,0,0.00,,,0.00,WUHU216PEETBRO,2013-07-01 23:24:00,
2013-07-01 18:29:00,87.7,0.0,0.00,NNE,22,2.9,9.8,0,0.00,,,0.00,WUHU216PEETBRO,2013-07-01 23:29:00,
2013-07-01 18:34:00,86.6,0.0,0.00,NNW,344,2.9,9.7,0,0.00,,,0.00,WUHU216PEETBRO,2013-07-01 23:34:00,
2013-07-01 18:39:00,87.7,0.0,0.00,North,354,3.2,9.7,0,0.00,,,0.00,WUHU216PEETBRO,2013-07-01 23:39:00,
2013-07-01 18:44:00,87.3,0.0,0.00,NNW,337,3.5,6.7,0,0.00,,,0.00,WUHU216PEETBRO,2013-07-01 23:44:00,
2013-07-01 18:49:00,86.6,0.0,0.00,North,5,5.5,11.0,0,0.00,,,0.00,WUHU216PEETBRO,2013-07-01 23:49:00,
2013-07-01 18:54:00,86.2,0.0,0.00,NNE,26,2.3,11.0,0,0.00,,,0.00,WUHU216PEETBRO,2013-07-01 23:54:00,
2013-07-01 18:59:00,85.1,0.0,0.00,North,358,4.3,7.3,0,0.00,,,0.00,WUHU216PEETBRO,2013-07-01 23:59:00,
2013-07-01 19:04:00,84.7,0.0,0.00,North,11,6.2,9.1,0,0.00,,,0.00,WUHU216PEETBRO,2013-07-02 00:04:00,
2013-07-01 19:09:00,84.4,0.0,0.00,NNE,32,3.2,9.1,0,0.00,,,0.00,WUHU216PEETBRO,2013-07-02 00:09:00,
2013-07-01 19:14:00,84.4,0.0,0.00,NNE,16,3.8,7.8,0,0.00,,,0.00,WUHU216PEETBRO,2013-07-02 00:14:00,
2013-07-01 19:19:00,84.3,0.0,0.00,NE,39,4.8,8.0,0,0.00,,,0.00,WUHU216PEETBRO,2013-07-02 00:19:00,
2013-07-01 19:24:00,83.5,0.0,0.00,North,5,2.8,8.0,0,0.00,,,0.00,WUHU216PEETBRO,2013-07-02 00:24:00,
2013-07-01 19:29:00,83.5,0.0,0.00,North,350,1.6,6.1,0,0.00,,,0.00,WUHU216PEETBRO,2013-07-02 00:29:00,
2013-07-01 19:34:00,82.8,0.0,0.00,NNE,19,4.0,5.5,0,0.00,,,0.00,WUHU216PEETBRO,2013-07-02 00:34:00,
2013-07-01 19:39:00,82.4,0.0,0.00,North,11,1.7,5.7,0,0.00,,,0.00,WUHU216PEETBRO,2013-07-02 00:39:00,
2013-07-01 19:44:00,81.5,0.0,0.00,NNW,331,1.6,6.1,0,0.00,,,0.00,WUHU216PEETBRO,2013-07-02 00:44:00,
2013-07-01 19:49:00,81.5,0.0,0.00,North,2,3.4,6.1,0,0.00,,,0.00,WUHU216PEETBRO,2013-07-02 00:49:00,
2013-07-01 19:54:00,80.2,0.0,0.00,NNW,347,0.0,5.2,0,0.00,,,0.00,WUHU216PEETBRO,2013-07-02 00:54:00,
2013-07-01 19:59:00,79.9,0.0,0.00,North,357,0.0,5.1,0,0.00,,,0.00,WUHU216PEETBRO,2013-07-02 00:59:00,
2013-07-01 20:04:00,79.5,0.0,0.00,NNE,12,0.6,5.1,0,0.00,,,0.00,WUHU216PEETBRO,2013-07-02 01:04:00,
2013-07-01 20:09:00,79.2,0.0,0.00,NNW,345,2.8,4.0,0,0.00,,,0.00,WUHU216PEETBRO,2013-07-02 01:09:00,
2013-07-01 20:14:00,78.9,0.0,0.00,North,11,0.0,4.0,0,0.00,,,0.00,WUHU216PEETBRO,2013-07-02 01:14:00,
2013-07-01 20:19:00,77.9,0.0,0.00,NNW,331,1.7,3.9,0,0.00,,,0.00,WUHU216PEETBRO,2013-07-02 01:19:00,
2013-07-01 20:24:00,77.8,0.0,0.00,North,2,1.4,3.9,0,0.00,,,0.00,WUHU216PEETBRO,2013-07-02 01:24:00,
2013-07-01 20:29:00,77.1,0.0,0.00,North,0,0.8,2.9,0,0.00,,,0.00,WUHU216PEETBRO,2013-07-02 01:29:00,
2013-07-01 20:34:00,76.8,0.0,0.00,NW,317,1.2,2.3,0,0.00,,,0.00,WUHU216PEETBRO,2013-07-02 01:34:00,
2013-07-01 20:39:00,76.2,0.0,0.00,North,9,1.3,2.7,0,0.00,,,0.00,WUHU216PEETBRO,2013-07-02 01:39:00,
2013-07-01 20:44:00,75.9,0.0,0.00,NNE,12,0.9,2.7,0,0.00,,,0.00,WUHU216PEETBRO,2013-07-02 01:44:00,
2013-07-01 20:49:00,74.9,0.0,0.00,NNW,338,0.5,2.4,0,0.00,,,0.00,WUHU216PEETBRO,2013-07-02 01:49:00,
2013-07-01 20:54:00,74.2,0.0,0.00,North,0,0.0,2.4,0,0.00,,,0.00,WUHU216PEETBRO,2013-07-02 01:54:00,
2013-07-01 20:59:00,73.9,0.0,0.00,North,0,0.0,1.7,0,0.00,,,0.00,WUHU216PEETBRO,2013-07-02 01:59:00,
2013-07-01 21:04:00,73.9,0.0,0.00,North,0,0.0,0.0,0,0.00,,,0.00,WUHU216PEETBRO,2013-07-02 02:04:00,
2013-07-01 21:09:00,73.9,0.0,0.00,North,358,1.7,2.5,0,0.00,,,0.00,WUHU216PEETBRO,2013-07-02 02:09:00,
2013-07-01 21:14:00,74.2,0.0,0.00,NNW,343,1.3,2.8,0,0.00,,,0.00,WUHU216PEETBRO,2013-07-02 02:14:00,
2013-07-01 21:19:00,73.2,0.0,0.00,North,355,0.7,2.8,0,0.00,,,0.00,WUHU216PEETBRO,2013-07-02 02:19:00,
2013-07-01 21:24:00,73.3,0.0,0.00,NNW,343,1.8,2.3,0,0.00,,,0.00,WUHU216PEETBRO,2013-07-02 02:24:00,
2013-07-01 21:29:00,72.6,0.0,0.00,WNW,293,0.0,1.9,0,0.00,,,0.00,WUHU216PEETBRO,2013-07-02 02:29:00,
2013-07-01 21:34:00,72.3,0.0,0.00,WNW,293,0.0,1.9,0,0.00,,,0.00,WUHU216PEETBRO,2013-07-02 02:34:00,
2013-07-01 21:39:00,72.3,0.0,0.00,WNW,293,0.0,0.0,0,0.00,,,0.00,WUHU216PEETBRO,2013-07-02 02:39:00,
2013-07-01 21:44:00,72.3,0.0,0.00,WNW,293,0.0,0.0,0,0.00,,,0.00,WUHU216PEETBRO,2013-07-02 02:44:00,
2013-07-01 21:49:00,71.7,0.0,0.00,WNW,293,0.0,0.0,0,0.00,,,0.00,WUHU216PEETBRO,2013-07-02 02:49:00,
2013-07-01 21:54:00,71.4,0.0,0.00,WNW,293,0.0,0.0,0,0.00,,,0.00,WUHU216PEETBRO,2013-07-02 02:54:00,
2013-07-01 21:59:00,71.1,0.0,0.00,NNW,348,1.6,1.9,0,0.00,,,0.00,WUHU216PEETBRO,2013-07-02 02:59:00,
2013-07-01 22:04:00,70.8,0.0,0.00,NW,326,1.0,2.1,0,0.00,,,0.00,WUHU216PEETBRO,2013-07-02 03:04:00,
2013-07-01 22:09:00,70.5,0.0,0.00,NNW,345,1.2,2.1,0,0.00,,,0.00,WUHU216PEETBRO,2013-07-02 03:09:00,
2013-07-01 22:14:00,70.8,0.0,0.00,NNW,343,0.0,2.1,0,0.00,,,0.00,WUHU216PEETBRO,2013-07-02 03:14:00,
2013-07-01 22:19:00,69.8,0.0,0.00,NNW,343,1.2,2.1,0,0.00,,,0.00,WUHU216PEETBRO,2013-07-02 03:19:00,
2013-07-01 22:24:00,69.3,0.0,0.00,NNW,343,0.8,1.6,0,0.00,,,0.00,WUHU216PEETBRO,2013-07-02 03:24:00,
2013-07-01 22:29:00,69.8,0.0,0.00,NNW,344,0.0,1.6,0,0.00,,,0.00,WUHU216PEETBRO,2013-07-02 03:29:00,
2013-07-01 22:34:00,69.5,0.0,0.00,NNW,344,0.0,0.7,0,0.00,,,0.00,WUHU216PEETBRO,2013-07-02 03:34:00,
2013-07-01 22:39:00,69.3,0.0,0.00,NNW,344,0.0,0.0,0,0.00,,,0.00,WUHU216PEETBRO,2013-07-02 03:39:00,
2013-07-01 22:44:00,69.6,0.0,0.00,NNW,344,0.0,0.0,0,0.00,,,0.00,WUHU216PEETBRO,2013-07-02 03:44:00,
2013-07-01 22:49:00,69.5,0.0,0.00,NNW,344,0.0,0.0,0,0.00,,,0.00,WUHU216PEETBRO,2013-07-02 03:49:00,
2013-07-01 22:54:00,69.4,0.0,0.00,NNW,344,0.0,0.0,0,0.00,,,0.00,WUHU216PEETBRO,2013-07-02 03:54:00,
2013-07-01 22:59:00,69.3,0.0,0.00,NNW,344,0.0,0.0,0,0.00,,,0.00,WUHU216PEETBRO,2013-07-02 03:59:00,
2013-07-01 23:01:00,69.5,0.0,0.00,NNW,344,0.0,0.0,0,0.00,,,0.00,WUHU216PEETBRO,2013-07-02 04:01:00,
2013-07-01 23:03:00,69.3,0.0,0.00,NNW,344,0.0,0.0,0,0.00,,,0.00,WUHU216PEETBRO,2013-07-02 04:03:00,
2013-07-01 23:04:00,69.3,0.0,0.00,NNW,344,0.0,0.0,0,0.00,,,0.00,WUHU216PEETBRO,2013-07-02 04:04:00,
2013-07-01 23:09:00,68.4,0.0,0.00,NNW,344,0.0,0.0,0,0.00,,,0.00,WUHU216PEETBRO,2013-07-02 04:09:00,
2013-07-01 23:14:00,68.6,0.0,0.00,NNW,344,0.0,0.0,0,0.00,,,0.00,WUHU216PEETBRO,2013-07-02 04:14:00,
2013-07-01 23:19:00,68.7,0.0,0.00,NNW,344,0.0,0.0,0,0.00,,,0.00,WUHU216PEETBRO,2013-07-02 04:19:00,
2013-07-01 23:24:00,68.7,0.0,0.00,NNW,344,0.0,0.0,0,0.00,,,0.00,WUHU216PEETBRO,2013-07-02 04:24:00,
2013-07-01 23:29:00,68.9,0.0,0.00,NNW,344,0.0,0.0,0,0.00,,,0.00,WUHU216PEETBRO,2013-07-02 04:29:00,
2013-07-01 23:34:00,68.4,0.0,0.00,NNW,344,0.0,0.0,0,0.00,,,0.00,WUHU216PEETBRO,2013-07-02 04:34:00,
2013-07-01 23:39:00,67.9,0.0,0.00,NNW,344,0.0,0.0,0,0.00,,,0.00,WUHU216PEETBRO,2013-07-02 04:39:00,
2013-07-01 23:44:00,68.2,0.0,0.00,NNW,344,0.0,0.0,0,0.00,,,0.00,WUHU216PEETBRO,2013-07-02 04:44:00,
2013-07-01 23:49:00,67.9,0.0,0.00,NNW,344,0.0,0.0,0,0.00,,,0.00,WUHU216PEETBRO,2013-07-02 04:49:00,
2013-07-01 23:54:00,67.9,0.0,0.00,NNW,344,0.0,0.0,0,0.00,,,0.00,WUHU216PEETBRO,2013-07-02 04:54:00,
2013-07-01 23:59:00,67.9,0.0,0.00,NNW,344,0.0,0.0,0,0.00,,,0.00,WUHU216PEETBRO,2013-07-02 04:59:00,